Location: Bagni
(44.8000°N, 12.2667°E)
Time: 21:38:14
(UTC+00:00)

Daily predictions for brighter satellites

Satellite Brightness Start Highest point End
(mag) Time Altitude Azimuth Time Altitude Azimuth Time Altitude Azimuth
ARGOS 4.1 17:24:44 10° ESE 17:29:10 27° ENE 17:33:38 10° N
NOSS 2-2 (C) 3.5 17:25:47 10° SW 17:29:15 68° NW 17:33:06 10° NNE
NOSS 3-2 (A) 4.2 17:22:21 10° NW 17:29:45 64° NE 17:38:07 10° SE
CZ-2C R/B 4.2 17:29:41 10° NE 17:32:51 15° E 17:36:02 10° ESE
Meteor 1-21 4.4 17:31:54 10° NNW 17:37:30 79° W 17:43:05 10° S
Cosmos 2151 Rocket 4.3 17:34:27 10° SSE 17:38:25 32° E 17:42:25 10° NNE
Lacrosse 5 rocket 3.7 17:37:00 10° NW 17:39:50 17° N 17:42:45 10° NE
Cosmos 1975 Rocket 3.3 17:36:28 10° NNW 17:40:48 77° W 17:45:05 10° S
HJ-1C 4.1 17:40:49 10° SE 17:43:48 33° ENE 17:46:49 10° N
COSMO-SKYMED 1 3.5 17:46:09 10° N 17:50:24 52° WNW 17:54:37 10° SSW
Shenzhou-11 Module 3.3 17:49:34 10° SSW 17:50:51 14° SSE 17:51:33 13° SE
Ariane Rocket 4.1 17:48:16 10° ESE 17:52:21 25° ENE 17:56:26 10° N
H-2A R/B 2.2 17:48:15 10° SSE 17:53:05 53° ENE 17:58:05 10° N
Nadezhda 4 Rocket 4.2 17:47:43 10° N 17:53:37 47° ENE 17:59:29 10° SSE
SJ 16-02 4.4 17:53:05 10° W 17:55:18 14° NW 17:57:31 10° NNW
Exosat Rocket 4.1 17:52:20 10° S 17:57:22 37° ESE 18:01:56 10° NE
Cosmos 2263 Rocket 4.1 17:53:38 10° WSW 17:58:34 32° NW 18:03:33 10° N
USA 116 3.6 17:56:57 10° NNE 18:00:39 76° ESE 18:04:51 10° S
COSMOS 2406 4.4 17:58:08 10° N 18:02:40 24° NE 18:05:51 15° E
Cosmos 1844 Rocket 2.6 17:57:11 10° SSW 18:02:42 70° ESE 18:08:17 10° NNE
Cosmos 372 Rocket 4.5 17:59:23 10° SSW 18:04:35 65° WNW 18:09:48 10° NNE
Cosmos 1707 3.1 18:02:05 10° NNW 18:05:54 68° W 18:09:41 10° S
Cosmos 2278 Rocket 4.1 18:10:00 11° ENE 18:10:00 11° ENE 18:10:22 10° ENE
Cosmos 1626 3.8 18:04:57 10° NNE 18:07:19 16° ENE 18:07:28 16° ENE
NOSS 3-2 (C) 4.1 18:00:32 10° NW 18:08:02 69° NE 18:16:08 11° SE
CZ-2C R/B 3.5 18:06:50 10° SW 18:08:11 12° SSW 18:09:30 10° S
Cosmos 1844 3.7 18:04:32 10° SSW 18:10:10 65° ESE 18:15:45 10° NNE
Cosmos 2034 Rocket 4.0 18:04:00 10° S 18:10:16 64° E 18:16:31 10° NNE
NOSS 3-4 (A) 3.8 18:06:18 10° S 18:11:41 39° ESE 18:17:21 10° NE
NOSS 3-4 (C) 3.8 18:06:25 10° S 18:11:48 38° ESE 18:17:27 10° NE
ISS -2.2 18:08:59 10° WNW 18:12:01 30° NNW 18:14:49 12° NE
USA 186 2.7 18:11:03 23° ESE 18:12:11 28° ENE 18:15:04 10° N
Meteor 1-12 Rocket 4.4 18:07:49 10° SSW 18:13:43 83° W 18:19:32 10° N
Meteor 2-5 Rocket 4.3 18:08:33 10° N 18:13:50 37° ENE 18:18:15 14° SE
Lacrosse 4 Rocket 3.6 18:14:57 10° NNE 18:15:36 10° NE 18:16:14 10° NE
Cosmos 1300 Rocket 3.9 18:14:40 10° SSW 18:19:03 69° W 18:23:30 10° N
Okean 1 Rocket 3.4 18:18:01 10° SSE 18:22:15 43° E 18:26:31 10° NNE
Resurs 01 Rocket 3.4 18:25:52 15° ENE 18:25:52 15° ENE 18:28:21 10° NNE
SL-14 R/B 4.5 18:23:13 10° NNE 18:26:27 24° ENE 18:26:27 24° ENE
CENTAUR R/B 3.2 18:19:01 10° NW 18:27:09 82° NE 18:34:46 15° SE
Cosmos 1833 Rocket 3.8 18:23:29 10° N 18:28:15 27° NE 18:30:12 22° E
CSL-04 Rocket 4.2 18:25:49 10° S 18:31:11 63° WSW 18:36:41 10° NNW
Cosmos 1766 3.5 18:29:31 10° SSE 18:33:16 46° E 18:37:05 10° NNE
Okean 2 Rocket 4.2 18:29:20 10° SSW 18:33:39 48° WNW 18:38:00 10° N
YAOGAN 1 4.4 18:30:05 10° SSW 18:33:58 33° W 18:37:54 10° NNW
ATLAS 2AS CENTAUR R/B 3.1 18:26:27 10° SSW 18:34:06 56° ESE 18:41:48 10° NE
Cosmos 1025 Rocket 4.0 18:31:02 10° NNW 18:35:18 50° W 18:39:32 10° SSW
Cosmos 1634 Rocket 4.2 18:32:12 10° SSE 18:38:01 47° E 18:43:56 10° NNE
ATLAS 3B R/B 3.3 18:32:52 10° NNW 18:39:17 41° NE 18:42:35 26° E
SPOT 3 Rocket 4.3 18:40:10 29° E 18:41:10 31° ENE 18:45:41 10° N
Abrixas rocket 1.7 18:39:21 10° WNW 18:42:12 86° SSW 18:42:12 86° SSW
CREW DRAGON DEMO-1 DEB 2.6 18:41:07 10° WNW 18:44:10 87° SSW 18:44:16 82° SE
Cosmos 1536 Rocket 4.3 18:40:44 10° NNW 18:45:05 54° W 18:49:27 10° S
Cosmos 1125 Rocket 3.9 18:41:13 10° SSW 18:46:30 68° WNW 18:51:49 10° NNE
Resurs 1-3 4.2 18:48:54 36° ENE 18:48:56 36° ENE 18:52:57 10° N
SJ-6B 2.6 18:48:31 53° ESE 18:49:08 64° ENE 18:52:53 10° N
CZ-4 R/B 4.4 18:48:54 10° SW 18:51:46 18° W 18:54:38 10° NW
Cosmos 1892 Rocket 4.3 18:47:55 10° N 18:51:24 34° ENE 18:51:24 34° ENE
Cosmos 2195 Rocket 4.4 18:49:15 10° N 18:55:32 76° E 19:00:07 19° SSE
Cosmos 1627 Rocket 4.5 18:50:45 10° N 18:57:10 72° E 19:01:24 22° SSE
Cosmos 2285 Rocket 4.1 18:50:53 10° SSW 18:57:10 76° WNW 19:03:34 10° NNE
Cosmos 1674 3.4 18:53:43 10° NNW 18:57:28 52° W 19:00:17 16° SSW
Cosmos 2026 Rocket 4.0 18:52:02 10° N 18:58:25 69° E 19:02:16 25° SSE
Cosmos 1092 Rocket 3.9 18:52:23 10° N 18:58:35 89° ENE 19:04:17 13° S
MOS 1 Rocket 4.5 18:59:17 10° N 19:03:22 39° WNW 19:07:21 10° SW
Cosmos 1428 Rocket 4.4 19:00:42 10° N 19:06:58 76° E 19:10:06 31° SSE
TSX-5 4.1 19:04:42 10° SW 19:08:31 74° WNW 19:13:25 10° NNE
ARGOS 4.2 19:04:05 10° S 19:09:11 45° W 19:14:21 10° NNW
CZ-2C R/B 2.8 19:08:10 10° NNE 19:13:46 81° WNW 19:19:22 10° SSW
Cosmos 1340 Rocket 3.7 19:15:11 39° NNE 19:15:11 39° NNE 19:17:48 10° NNE
Cosmos 2279 Rocket 4.0 19:12:59 44° SE 19:14:33 56° E 19:20:39 10° NNE
Cosmos 1733 3.7 19:13:48 30° SSW 19:15:30 60° W 19:19:18 10° N
MOS 1 4.4 19:13:05 26° S 19:16:28 75° WSW 19:22:13 10° NNW
Lacrosse 5 rocket 3.3 19:16:51 10° NNW 19:20:22 22° NNE 19:20:43 22° NNE
Cosmos 2082 Rocket 2.8 19:16:12 10° NNW 19:21:17 38° NE 19:21:17 38° NE
Cosmos 2098 Rocket 4.3 19:15:22 10° N 19:21:19 42° ENE 19:21:19 42° ENE
DMSP B5D2-2 4.2 19:18:16 10° N 19:23:35 76° WNW 19:28:50 10° SSW
BREEZE-M R/B 3.9 19:16:14 10° W 19:24:13 56° NNW 19:24:25 55° N
BREEZE-M DEB (TANK) 4.3 19:20:31 10° W 19:24:18 43° SSW 19:27:36 30° SSE
OBJECT-B 3.0 19:28:48 23° NNW 19:28:48 23° NNW 19:30:12 10° NNW
Cosmos 2142 Rocket 4.3 19:24:37 27° S 19:28:15 82° E 19:34:29 10° N
Ariane Rocket 3.9 19:28:05 22° SSW 19:31:03 45° W 19:35:56 10° NNW
H-2A R/B 4.4 19:29:13 10° SW 19:32:52 20° W 19:36:35 10° NW
Milstar 3 Cent rocket 4.2 19:30:04 10° SW 19:32:39 14° SSW 19:32:39 14° SSW
USA 234 4.3 19:38:14 28° S 19:38:14 28° S 19:41:21 10° SSW
Terra 4.4 19:42:51 10° NNE 19:42:51 10° NNE 19:42:55 10° NNE
Cosmos 1626 3.8 19:39:18 10° NNW 19:42:02 32° WNW 19:42:02 32° WNW
Okean 1-7 Rocket 4.4 19:38:37 10° N 19:41:51 46° N 19:41:51 46° N
COSMOS 2406 3.4 19:41:50 10° NNW 19:47:27 64° WSW 19:47:55 61° SW
ISS -0.9 19:46:36 10° NW 19:47:46 17° NW 19:47:46 17° NW
Cosmos 2278 Rocket 2.4 19:44:54 10° SSW 19:51:32 62° N 19:56:16 10° NNE
Lacrosse 4 Rocket 3.3 19:51:01 10° NNW 19:52:52 26° NNW 19:52:52 26° NNW
Cosmos 909 Rocket 4.1 19:53:55 10° NNW 19:59:55 65° NNE 19:59:55 65° NNE
Resurs 01 Rocket 3.1 20:03:26 36° NW 20:03:26 36° NW 20:06:11 10° NNW
Cosmos 2266 Rocket 4.4 19:55:56 10° N 20:00:33 51° NNE 20:00:33 51° NNE
NOSS 3-4 (A) 4.4 19:56:47 10° WSW 20:02:27 44° NW 20:08:34 10° NNE
NOSS 3-4 (C) 4.4 19:56:53 10° WSW 20:02:33 45° NW 20:08:40 10° NNE
Meteor 2-19 Rocket 4.5 19:57:44 10° NNW 20:03:47 74° W 20:03:47 74° W
Cosmos 1833 Rocket 3.3 20:07:00 10° NW 20:11:54 52° W 20:11:54 52° W
Cosmos 2251 Rocket 4.4 20:10:01 10° NNW 20:13:44 45° NNW 20:13:44 45° NNW
ATLAS 2AS CENTAUR R/B 3.9 20:17:48 10° WSW 20:25:23 46° NW 20:32:52 10° NNE
ATLAS 3B R/B 3.2 20:23:31 10° NW 20:29:50 54° WSW 20:29:50 54° WSW
Cosmos 2082 Rocket 4.1 21:00:25 10° NW 21:03:08 25° WNW 21:03:08 25° WNW
